Time,TemperatureF,DewpointF,PressureIn,WindDirection,WindDirectionDegrees,WindSpeedMPH,WindSpeedGustMPH,Humidity,HourlyPrecipIn,Conditions,Clouds,dailyrainin,SoftwareType,DateUTC
2013-01-13 00:03:00,15.0,8.0,-100.00,NNE,25,9.0,16.0,74,-99.99,,,-99.99,,2013-01-13 06:03:00,
2013-01-13 00:12:00,15.0,8.0,-100.00,NNE,25,9.0,16.0,74,-99.99,,,-99.99,,2013-01-13 06:12:00,
2013-01-13 00:22:00,15.0,8.0,-100.00,NNE,25,9.0,16.0,74,-99.99,,,-99.99,,2013-01-13 06:22:00,
2013-01-13 00:52:00,15.0,8.0,-100.00,SSW,205,7.0,13.0,74,-99.99,,,-99.99,,2013-01-13 06:52:00,
2013-01-13 01:02:00,15.0,8.0,-100.00,SSW,205,7.0,13.0,74,-99.99,,,-99.99,,2013-01-13 07:02:00,
2013-01-13 01:12:00,15.0,8.0,-100.00,SSW,205,7.0,13.0,74,-99.99,,,-99.99,,2013-01-13 07:12:00,
2013-01-13 01:22:00,15.0,8.0,-100.00,SSW,205,7.0,13.0,74,-99.99,,,-99.99,,2013-01-13 07:22:00,
2013-01-13 01:53:00,13.0,7.0,-100.00,NNE,25,8.0,11.0,74,-99.99,,,-99.99,,2013-01-13 07:53:00,
2013-01-13 02:02:00,13.0,7.0,-100.00,NNE,25,8.0,11.0,74,-99.99,,,-99.99,,2013-01-13 08:02:00,
2013-01-13 02:12:00,13.0,7.0,-100.00,NNE,25,8.0,11.0,74,-99.99,,,-99.99,,2013-01-13 08:12:00,
2013-01-13 02:22:00,13.0,7.0,-100.00,NNE,25,8.0,11.0,74,-99.99,,,-99.99,,2013-01-13 08:22:00,
2013-01-13 02:53:00,12.0,5.0,-100.00,NNE,15,8.0,14.0,73,-99.99,,,-99.99,,2013-01-13 08:53:00,
2013-01-13 03:02:00,12.0,5.0,-100.00,NNE,15,8.0,14.0,73,-99.99,,,-99.99,,2013-01-13 09:02:00,
2013-01-13 03:12:00,12.0,5.0,-100.00,NNE,15,8.0,14.0,73,-99.99,,,-99.99,,2013-01-13 09:12:00,
2013-01-13 03:22:00,12.0,5.0,-100.00,NNE,15,8.0,14.0,73,-99.99,,,-99.99,,2013-01-13 09:22:00,
2013-01-13 03:52:00,10.0,4.0,-100.00,NNE,15,7.0,14.0,75,-99.99,,,-99.99,,2013-01-13 09:52:00,
2013-01-13 04:02:00,10.0,4.0,-100.00,NNE,15,7.0,14.0,75,-99.99,,,-99.99,,2013-01-13 10:02:00,
2013-01-13 04:12:00,10.0,4.0,-100.00,NNE,15,7.0,14.0,75,-99.99,,,-99.99,,2013-01-13 10:12:00,
2013-01-13 04:22:00,10.0,4.0,-100.00,NNE,15,7.0,14.0,75,-99.99,,,-99.99,,2013-01-13 10:22:00,
2013-01-13 04:53:00,9.0,4.0,-100.00,North,10,4.0,9.0,77,-99.99,,,-99.99,,2013-01-13 10:53:00,
2013-01-13 05:02:00,9.0,4.0,-100.00,North,10,4.0,9.0,77,-99.99,,,-99.99,,2013-01-13 11:02:00,
2013-01-13 05:12:00,9.0,4.0,-100.00,North,10,4.0,9.0,77,-99.99,,,-99.99,,2013-01-13 11:12:00,
2013-01-13 05:22:00,9.0,4.0,-100.00,North,10,4.0,9.0,77,-99.99,,,-99.99,,2013-01-13 11:22:00,
2013-01-13 05:53:00,9.0,4.0,-100.00,NW,325,6.0,9.0,79,-99.99,,,-99.99,,2013-01-13 11:53:00,
2013-01-13 06:03:00,9.0,4.0,-100.00,NW,325,6.0,9.0,79,-99.99,,,-99.99,,2013-01-13 12:03:00,
2013-01-13 06:12:00,9.0,4.0,-100.00,NW,325,6.0,9.0,79,-99.99,,,-99.99,,2013-01-13 12:12:00,
2013-01-13 06:22:00,9.0,4.0,-100.00,NW,325,6.0,9.0,79,-99.99,,,-99.99,,2013-01-13 12:22:00,
2013-01-13 06:53:00,9.0,4.0,-100.00,North,0,6.0,9.0,80,-99.99,,,-99.99,,2013-01-13 12:53:00,
2013-01-13 07:03:00,9.0,4.0,-100.00,North,0,6.0,9.0,80,-99.99,,,-99.99,,2013-01-13 13:03:00,
2013-01-13 07:12:00,9.0,4.0,-100.00,North,0,6.0,9.0,80,-99.99,,,-99.99,,2013-01-13 13:12:00,
2013-01-13 07:22:00,9.0,4.0,-100.00,North,0,6.0,9.0,80,-99.99,,,-99.99,,2013-01-13 13:22:00,
2013-01-13 07:53:00,9.0,4.0,-100.00,North,0,7.0,11.0,78,-99.99,,,-99.99,,2013-01-13 13:53:00,
2013-01-13 08:03:00,9.0,4.0,-100.00,North,0,7.0,11.0,78,-99.99,,,-99.99,,2013-01-13 14:03:00,
2013-01-13 08:12:00,9.0,4.0,-100.00,North,0,7.0,11.0,78,-99.99,,,-99.99,,2013-01-13 14:12:00,
2013-01-13 08:22:00,9.0,4.0,-100.00,North,0,7.0,11.0,78,-99.99,,,-99.99,,2013-01-13 14:22:00,
2013-01-13 08:53:00,10.0,4.0,-100.00,North,0,6.0,12.0,78,-99.99,,,-99.99,,2013-01-13 14:53:00,
2013-01-13 09:03:00,10.0,4.0,-100.00,North,0,6.0,12.0,78,-99.99,,,-99.99,,2013-01-13 15:03:00,
2013-01-13 09:12:00,10.0,4.0,-100.00,North,0,6.0,12.0,78,-99.99,,,-99.99,,2013-01-13 15:12:00,
2013-01-13 09:23:00,10.0,4.0,-100.00,North,0,6.0,12.0,78,-99.99,,,-99.99,,2013-01-13 15:23:00,
2013-01-13 09:53:00,10.0,4.0,-100.00,NE,45,6.0,11.0,77,-99.99,,,-99.99,,2013-01-13 15:53:00,
2013-01-13 10:03:00,10.0,4.0,-100.00,NE,45,6.0,11.0,77,-99.99,,,-99.99,,2013-01-13 16:03:00,
2013-01-13 10:12:00,10.0,4.0,-100.00,NE,45,6.0,11.0,77,-99.99,,,-99.99,,2013-01-13 16:12:00,
2013-01-13 10:23:00,10.0,4.0,-100.00,NE,45,6.0,11.0,77,-99.99,,,-99.99,,2013-01-13 16:23:00,
2013-01-13 10:53:00,11.0,4.0,-100.00,South,185,6.0,11.0,75,-99.99,,,-99.99,,2013-01-13 16:53:00,
2013-01-13 11:03:00,11.0,4.0,-100.00,South,185,6.0,11.0,75,-99.99,,,-99.99,,2013-01-13 17:03:00,
2013-01-13 11:12:00,11.0,4.0,-100.00,South,185,6.0,11.0,75,-99.99,,,-99.99,,2013-01-13 17:12:00,
2013-01-13 11:22:00,11.0,4.0,-100.00,South,185,6.0,11.0,75,-99.99,,,-99.99,,2013-01-13 17:22:00,
2013-01-13 11:53:00,11.0,4.0,-100.00,North,0,8.0,17.0,73,-99.99,,,-99.99,,2013-01-13 17:53:00,
2013-01-13 12:03:00,11.0,4.0,-100.00,North,0,8.0,17.0,73,-99.99,,,-99.99,,2013-01-13 18:03:00,
2013-01-13 12:12:00,11.0,4.0,-100.00,North,0,8.0,17.0,73,-99.99,,,-99.99,,2013-01-13 18:12:00,
2013-01-13 12:23:00,11.0,4.0,-100.00,North,0,8.0,17.0,73,-99.99,,,-99.99,,2013-01-13 18:23:00,
2013-01-13 12:53:00,13.0,5.0,-100.00,SSW,205,6.0,14.0,72,-99.99,,,-99.99,,2013-01-13 18:53:00,
2013-01-13 13:03:00,13.0,5.0,-100.00,SSW,205,6.0,14.0,72,-99.99,,,-99.99,,2013-01-13 19:03:00,
2013-01-13 13:12:00,13.0,5.0,-100.00,SSW,205,6.0,14.0,72,-99.99,,,-99.99,,2013-01-13 19:12:00,
2013-01-13 13:22:00,13.0,5.0,-100.00,SSW,205,6.0,14.0,72,-99.99,,,-99.99,,2013-01-13 19:22:00,
2013-01-13 13:53:00,13.0,6.0,-100.00,South,185,7.0,12.0,72,-99.99,,,-99.99,,2013-01-13 19:53:00,
2013-01-13 14:03:00,13.0,6.0,-100.00,South,185,7.0,12.0,72,-99.99,,,-99.99,,2013-01-13 20:03:00,
2013-01-13 14:12:00,13.0,6.0,-100.00,South,185,7.0,12.0,72,-99.99,,,-99.99,,2013-01-13 20:12:00,
2013-01-13 14:22:00,13.0,6.0,-100.00,South,185,7.0,12.0,72,-99.99,,,-99.99,,2013-01-13 20:22:00,
2013-01-13 14:53:00,13.0,6.0,-100.00,SSW,200,7.0,14.0,72,-99.99,,,-99.99,,2013-01-13 20:53:00,
2013-01-13 15:03:00,13.0,6.0,-100.00,SSW,200,7.0,14.0,72,-99.99,,,-99.99,,2013-01-13 21:03:00,
2013-01-13 15:12:00,13.0,6.0,-100.00,SSW,200,7.0,14.0,72,-99.99,,,-99.99,,2013-01-13 21:12:00,
2013-01-13 15:23:00,13.0,6.0,-100.00,SSW,200,7.0,14.0,72,-99.99,,,-99.99,,2013-01-13 21:23:00,
2013-01-13 15:53:00,13.0,6.0,-100.00,SSW,205,8.0,17.0,75,-99.99,,,-99.99,,2013-01-13 21:53:00,
2013-01-13 16:02:00,13.0,6.0,-100.00,SSW,205,8.0,17.0,75,-99.99,,,-99.99,,2013-01-13 22:02:00,
2013-01-13 16:12:00,13.0,6.0,-100.00,SSW,205,8.0,17.0,75,-99.99,,,-99.99,,2013-01-13 22:12:00,
2013-01-13 16:22:00,13.0,6.0,-100.00,SSW,205,8.0,17.0,75,-99.99,,,-99.99,,2013-01-13 22:22:00,
2013-01-13 16:53:00,12.0,7.0,-100.00,SSW,205,9.0,14.0,78,-99.99,,,-99.99,,2013-01-13 22:53:00,
2013-01-13 17:02:00,12.0,7.0,-100.00,SSW,205,9.0,14.0,78,-99.99,,,-99.99,,2013-01-13 23:02:00,
2013-01-13 17:12:00,12.0,7.0,-100.00,SSW,205,9.0,14.0,78,-99.99,,,-99.99,,2013-01-13 23:12:00,
2013-01-13 17:22:00,12.0,7.0,-100.00,SSW,205,9.0,14.0,78,-99.99,,,-99.99,,2013-01-13 23:22:00,
2013-01-13 17:53:00,12.0,7.0,-100.00,SSW,205,9.0,14.0,80,-99.99,,,-99.99,,2013-01-13 23:53:00,
2013-01-13 18:03:00,12.0,7.0,-100.00,SSW,205,9.0,14.0,80,-99.99,,,-99.99,,2013-01-14 00:03:00,
2013-01-13 18:12:00,12.0,7.0,-100.00,SSW,205,9.0,14.0,80,-99.99,,,-99.99,,2013-01-14 00:12:00,
2013-01-13 18:22:00,12.0,7.0,-100.00,SSW,205,9.0,14.0,80,-99.99,,,-99.99,,2013-01-14 00:22:00,
2013-01-13 18:53:00,12.0,5.0,-100.00,SSW,210,9.0,16.0,75,-99.99,,,-99.99,,2013-01-14 00:53:00,
2013-01-13 19:03:00,12.0,5.0,-100.00,SSW,210,9.0,16.0,75,-99.99,,,-99.99,,2013-01-14 01:03:00,
2013-01-13 19:12:00,12.0,5.0,-100.00,SSW,210,9.0,16.0,75,-99.99,,,-99.99,,2013-01-14 01:12:00,
2013-01-13 19:22:00,12.0,5.0,-100.00,SSW,210,9.0,16.0,75,-99.99,,,-99.99,,2013-01-14 01:22:00,
2013-01-13 19:53:00,11.0,6.0,-100.00,SSW,210,12.0,19.0,79,-99.99,,,-99.99,,2013-01-14 01:53:00,
2013-01-13 20:03:00,11.0,6.0,-100.00,SSW,210,12.0,19.0,79,-99.99,,,-99.99,,2013-01-14 02:03:00,
2013-01-13 20:12:00,11.0,6.0,-100.00,SSW,210,12.0,19.0,79,-99.99,,,-99.99,,2013-01-14 02:12:00,
2013-01-13 20:22:00,11.0,6.0,-100.00,SSW,210,12.0,19.0,79,-99.99,,,-99.99,,2013-01-14 02:22:00,
2013-01-13 20:53:00,10.0,3.0,-100.00,SSW,210,9.0,20.0,74,-99.99,,,-99.99,,2013-01-14 02:53:00,
2013-01-13 21:02:00,10.0,3.0,-100.00,SSW,210,9.0,20.0,74,-99.99,,,-99.99,,2013-01-14 03:02:00,
2013-01-13 21:12:00,10.0,3.0,-100.00,SSW,210,9.0,20.0,74,-99.99,,,-99.99,,2013-01-14 03:12:00,
2013-01-13 21:22:00,10.0,3.0,-100.00,SSW,210,9.0,20.0,74,-99.99,,,-99.99,,2013-01-14 03:22:00,
2013-01-13 21:30:00,10.0,4.0,-100.00,SSW,210,8.0,14.0,76,-99.99,,,-99.99,,2013-01-14 03:30:00,
2013-01-13 21:53:00,10.0,4.0,-100.00,SSW,210,8.0,14.0,76,-99.99,,,-99.99,,2013-01-14 03:53:00,
2013-01-13 22:02:00,10.0,4.0,-100.00,SSW,210,8.0,14.0,76,-99.99,,,-99.99,,2013-01-14 04:02:00,
2013-01-13 22:12:00,10.0,4.0,-100.00,SSW,210,8.0,14.0,76,-99.99,,,-99.99,,2013-01-14 04:12:00,
2013-01-13 22:22:00,10.0,4.0,-100.00,SSW,210,8.0,14.0,76,-99.99,,,-99.99,,2013-01-14 04:22:00,
2013-01-13 22:53:00,9.0,4.0,-100.00,SSW,210,7.0,16.0,77,-99.99,,,-99.99,,2013-01-14 04:53:00,
2013-01-13 23:04:00,9.0,4.0,-100.00,SSW,210,7.0,16.0,77,-99.99,,,-99.99,,2013-01-14 05:04:00,
2013-01-13 23:12:00,9.0,4.0,-100.00,SSW,210,7.0,16.0,77,-99.99,,,-99.99,,2013-01-14 05:12:00,
2013-01-13 23:22:00,9.0,4.0,-100.00,SSW,210,7.0,16.0,77,-99.99,,,-99.99,,2013-01-14 05:22:00,
2013-01-13 23:53:00,8.0,4.0,-100.00,NNW,330,5.0,9.0,80,-99.99,,,-99.99,,2013-01-14 05:53:00,